�N����,����,�~����,�C��,���x,�C��,����,���ϕ���,�ő�u�ԕ���,�ő厞����,���˗�,�I�_���x,�n�����x,�ő啗���N��,DTYPE
"22/09/01","00:10",0.0,26.1,88.9,1001.9,279.7,0.5,1.4,301.3,0.00,24.2,27.5,"00:00:24",1
"22/09/01","00:20",0.0,26.0,89.1,1002.2,280.1,0.5,0.9,261.6,0.00,24.1,27.5,"00:14:56",1
"22/09/01","00:30",0.0,25.9,89.3,1001.9,296.6,0.7,1.2,312.4,0.00,24.0,27.4,"00:25:04",1
"22/09/01","00:40",0.0,25.9,89.5,1001.5,334.2,0.7,1.6,337.1,0.00,24.1,27.3,"00:34:32",1
"22/09/01","00:50",0.0,25.8,89.7,1001.7,299.5,1.0,1.3,324.7,0.00,24.0,27.4,"00:40:08",1
"22/09/01","01:00",0.0,25.8,90.1,1001.7,305.5,1.0,1.7,277.9,0.00,24.1,27.2,"00:59:52",1
"22/09/01","01:10",0.0,25.8,90.2,1001.2,309.6,1.0,1.9,333.1,0.00,24.1,27.0,"01:04:24",1
"22/09/01","01:20",0.0,25.8,90.3,1001.7,326.3,1.0,1.8,338.1,0.00,24.1,27.2,"01:10:40",1
"22/09/01","01:30",0.0,25.7,90.4,1001.9,278.8,0.7,1.2,261.7,0.00,24.0,27.2,"01:23:44",1
"22/09/01","01:40",0.0,25.7,90.6,1002.4,324.0,0.7,1.2,339.0,0.00,24.1,27.2,"01:34:16",1
"22/09/01","01:50",0.0,25.8,90.7,1001.9,347.6,1.0,1.7,342.8,0.00,24.2,27.2,"01:49:04",1
"22/09/01","02:00",0.0,25.8,90.8,1001.9,346.4,1.0,1.3,342.6,0.00,24.2,26.8,"01:51:52",1
"22/09/01","02:10",0.0,25.8,91.0,1002.2,306.5,0.7,1.4,352.1,0.00,24.3,26.8,"02:01:04",1
"22/09/01","02:20",0.0,25.8,91.1,1002.2,264.4,0.7,1.7,250.3,0.00,24.3,26.9,"02:11:12",1
"22/09/01","02:30",0.0,25.9,91.2,1002.2,342.3,0.8,1.6,10.4,0.00,24.4,26.9,"02:28:40",1
"22/09/01","02:40",0.0,25.9,91.2,1002.2,330.6,0.8,1.9,354.2,0.00,24.4,26.9,"02:30:24",1
"22/09/01","02:50",0.0,25.7,91.3,1001.9,288.2,0.5,0.6,353.8,0.00,24.2,27.0,"02:40:08",1
"22/09/01","03:00",0.0,25.8,91.5,1002.4,309.0,0.8,1.7,338.1,0.00,24.3,26.8,"02:57:36",1
"22/09/01","03:10",0.0,25.7,91.6,1002.4,323.8,1.0,2.2,332.3,0.00,24.3,26.9,"03:02:48",1
"22/09/01","03:20",0.0,25.7,91.7,1002.4,277.6,0.2,0.8,312.4,0.00,24.3,26.8,"03:11:36",1
"22/09/01","03:30",0.0,25.7,91.8,1002.4,283.8,0.3,0.6,335.9,0.00,24.3,26.7,"03:24:56",1
"22/09/01","03:40",0.0,25.7,91.9,1002.4,305.3,0.7,1.7,353.5,0.00,24.3,26.9,"03:30:02",1
"22/09/01","03:50",0.0,25.7,92.0,1002.2,338.9,0.8,2.1,350.4,0.00,24.3,26.7,"03:41:28",1
"22/09/01","04:00",0.0,25.6,92.2,1002.6,222.7,0.3,0.6,255.7,0.00,24.3,26.7,"03:53:04",1
"22/09/01","04:10",0.0,25.7,92.4,1002.2,332.2,0.8,1.9,340.6,0.00,24.4,26.6,"04:09:36",1
"22/09/01","04:20",0.0,25.6,92.5,1002.4,328.8,1.0,1.4,338.2,0.00,24.3,26.8,"04:12:16",1
"22/09/01","04:30",0.0,25.6,92.7,1002.6,266.1,0.7,1.3,236.7,0.00,24.4,26.7,"04:26:16",1
"22/09/01","04:40",0.6,25.6,92.7,1002.4,279.9,0.2,0.6,348.7,0.00,24.4,26.8,"04:38:48",1
"22/09/01","04:50",0.6,25.5,92.8,1002.9,250.1,0.3,0.9,246.1,0.00,24.3,26.7,"04:44:24",1
"22/09/01","05:00",0.4,25.6,92.9,1003.1,33.5,0.3,1.0,76.1,0.00,24.4,26.6,"04:54:00",1
"22/09/01","05:10",0.0,25.5,93.0,1003.1,79.8,0.2,1.2,9.0,0.00,24.3,26.6,"05:01:12",1
"22/09/01","05:20",0.0,25.6,93.1,1002.6,336.4,0.7,1.4,338.1,0.00,24.4,26.7,"05:15:20",1
"22/09/01","05:30",0.0,25.4,93.2,1002.9,308.9,0.3,1.2,357.9,0.00,24.3,26.6,"05:20:40",1
"22/09/01","05:40",0.0,25.4,93.4,1002.4,276.0,0.2,0.6,246.5,0.00,24.3,26.5,"05:37:04",1
"22/09/01","05:50",0.0,25.4,93.5,1002.9,303.7,0.5,1.0,228.8,0.00,24.3,26.6,"05:42:56",1
"22/09/01","06:00",0.0,25.4,93.6,1002.6,279.5,0.3,1.2,220.1,0.00,24.3,26.5,"05:51:04",1
"22/09/01","06:10",0.0,25.3,93.7,1002.6,295.7,0.3,0.8,317.0,0.00,24.3,26.3,"06:03:12",1
"22/09/01","06:20",0.0,25.4,93.8,1003.1,307.0,0.2,0.9,257.9,0.00,24.4,26.4,"06:14:08",1
"22/09/01","06:30",0.0,25.5,93.9,1003.6,297.4,0.2,0.8,300.9,0.00,24.5,26.6,"06:21:28",1
"22/09/01","06:40",0.4,25.5,94.0,1003.8,352.1,0.6,1.1,354.3,0.00,24.5,26.4,"06:38:16",1
"22/09/01","06:50",0.8,25.5,94.0,1003.8,4.9,0.6,1.1,7.8,0.00,24.5,26.6,"06:46:32",1
"22/09/01","07:00",0.0,25.7,94.1,1003.8,8.9,0.5,1.0,355.6,0.01,24.7,26.5,"06:55:44",1
"22/09/01","07:10",0.0,25.8,94.1,1003.6,351.3,0.1,0.9,10.6,0.02,24.8,26.4,"07:00:08",1
"22/09/01","07:20",0.4,25.8,94.1,1004.1,60.0,0.1,0.4,49.7,0.00,24.8,26.4,"07:10:16",1
"22/09/01","07:30",0.0,25.8,94.2,1004.1,307.9,0.2,0.5,345.2,0.00,24.8,26.5,"07:21:44",1
"22/09/01","07:40",0.2,25.8,94.2,1004.1,309.7,0.2,0.8,315.3,0.00,24.8,26.4,"07:31:20",1
"22/09/01","07:50",0.2,25.8,94.3,1003.8,119.2,0.1,0.5,29.4,0.00,24.9,26.3,"07:49:12",1
"22/09/01","08:00",0.0,25.8,94.3,1003.8,18.0,0.3,0.9,1.0,0.00,24.9,26.5,"07:56:24",1
"22/09/01","08:10",0.0,25.8,94.4,1003.6,347.4,0.5,1.0,343.7,0.00,24.9,26.6,"08:06:48",1
"22/09/01","08:20",0.0,25.9,94.5,1003.6,345.0,0.5,1.0,2.9,0.01,25.0,26.3,"08:12:16",1
"22/09/01","08:30",0.0,26.0,94.5,1004.1,314.8,0.3,0.8,338.1,0.02,25.1,26.3,"08:29:20",1
"22/09/01","08:40",0.0,26.2,94.6,1004.1,6.0,0.5,1.1,336.5,0.02,25.3,26.4,"08:30:32",1
"22/09/01","08:50",0.0,26.3,94.6,1003.8,1.2,0.3,1.0,354.0,0.03,25.4,26.4,"08:47:04",1
"22/09/01","09:00",0.0,26.2,94.6,1003.8,7.1,0.7,1.6,349.2,0.06,25.3,26.4,"08:50:48",1
"22/09/01","09:10",0.0,26.5,94.6,1004.1,218.7,0.3,1.1,172.5,0.06,25.6,26.4,"09:03:20",1
"22/09/01","09:20",0.0,26.3,94.5,1004.1,199.6,1.0,1.7,229.0,0.02,25.4,26.5,"09:15:12",1
"22/09/01","09:30",0.0,26.3,94.5,1004.8,180.1,0.7,1.4,125.6,0.03,25.4,26.5,"09:26:56",1
"22/09/01","09:40",0.0,26.4,94.5,1005.0,183.3,0.3,1.1,211.7,0.01,25.5,26.5,"09:35:44",1
"22/09/01","09:50",1.4,26.5,94.4,1005.0,210.9,0.5,1.2,236.1,0.03,25.6,26.4,"09:42:24",1
"22/09/01","10:00",1.0,26.3,94.4,1005.0,178.0,0.5,1.2,130.9,0.00,25.4,26.5,"09:56:40",1
"22/09/01","10:10",3.4,26.3,94.5,1004.8,197.2,0.8,1.6,237.0,0.02,25.4,26.5,"10:01:04",1
"22/09/01","10:20",0.2,26.2,94.5,1004.8,185.5,0.5,1.4,218.3,0.02,25.3,26.5,"10:18:08",1
"22/09/01","10:30",0.4,26.4,94.6,1005.2,241.6,0.5,1.9,183.2,0.02,25.5,26.6,"10:20:02",1
"22/09/01","10:40",2.2,26.3,94.6,1005.5,151.6,0.7,2.6,133.8,0.03,25.4,26.5,"10:32:32",1
"22/09/01","10:50",0.8,26.4,94.6,1004.8,85.5,0.3,0.8,113.7,0.03,25.5,26.5,"10:42:16",1
"22/09/01","11:00",0.6,26.5,94.6,1004.5,356.4,0.6,1.7,353.2,0.06,25.6,26.5,"10:56:48",1
"22/09/01","11:10",0.4,26.7,94.7,1004.5,215.2,0.5,1.2,150.0,0.09,25.8,26.5,"11:03:44",1
"22/09/01","11:20",0.2,27.1,94.6,1004.3,320.6,0.2,1.0,290.6,0.15,26.2,26.5,"11:12:08",1
"22/09/01","11:30",0.2,27.1,94.7,1004.5,109.7,0.5,1.3,123.6,0.17,26.2,26.5,"11:24:08",1
"22/09/01","11:40",0.0,27.3,94.5,1003.8,130.9,0.7,1.6,112.9,0.21,26.4,26.6,"11:33:12",1
"22/09/01","11:50",0.0,27.3,94.1,1003.4,162.9,1.2,2.8,132.4,0.30,26.3,26.7,"11:48:00",1
"22/09/01","12:00",0.0,27.3,93.9,1004.1,178.6,0.8,2.5,185.4,0.16,26.3,26.7,"11:51:36",1
"22/09/01","12:10",0.0,27.1,93.8,1004.3,199.7,0.5,1.4,233.6,0.07,26.1,26.6,"12:09:28",1
"22/09/01","12:20",0.0,27.2,93.5,1004.3,211.5,1.3,2.2,221.8,0.10,26.1,26.8,"12:12:32",1
"22/09/01","12:30",0.4,27.2,93.4,1004.5,191.7,1.5,2.9,210.7,0.13,26.1,26.7,"12:20:32",1
"22/09/01","12:40",0.0,27.3,93.2,1003.8,159.3,1.1,2.2,201.2,0.16,26.1,26.5,"12:38:00",1
"22/09/01","12:50",0.2,27.6,92.9,1004.1,155.2,1.0,2.2,174.9,0.18,26.4,26.7,"12:41:36",1
"22/09/01","13:00",0.0,27.2,93.0,1004.3,106.5,1.2,2.6,342.4,0.05,26.0,26.8,"12:58:48",1
"22/09/01","13:10",0.0,27.7,93.3,1004.3,342.1,1.3,3.3,335.5,0.18,26.6,26.9,"13:02:00",1
"22/09/01","13:20",0.0,27.0,92.8,1004.5,349.1,1.7,3.1,354.3,0.25,25.8,26.9,"13:18:56",1
"22/09/01","13:30",0.0,27.4,91.4,1003.8,340.9,2.1,4.9,324.4,0.41,25.9,27.0,"13:28:56",1
"22/09/01","13:40",0.0,28.5,90.3,1004.3,343.2,1.3,2.8,336.2,0.47,26.8,26.8,"13:31:52",1
"22/09/01","13:50",0.0,28.5,87.9,1004.8,333.3,1.5,2.9,336.9,0.24,26.3,26.9,"13:49:20",1
"22/09/01","14:00",0.0,28.6,86.9,1004.8,298.2,1.2,2.7,319.6,0.19,26.2,27.1,"13:55:04",1
"22/09/01","14:10",0.0,28.9,85.3,1004.1,330.4,1.3,2.6,317.2,0.34,26.2,27.0,"14:00:56",1
"22/09/01","14:20",0.0,29.3,82.7,1004.1,18.3,1.2,3.3,25.4,0.31,26.1,27.1,"14:15:52",1
"22/09/01","14:30",0.0,28.8,80.1,1004.5,354.7,1.5,4.1,19.5,0.06,25.1,27.1,"14:25:12",1
"22/09/01","14:40",0.2,28.6,81.3,1004.1,281.3,1.0,2.1,217.5,0.02,25.1,27.2,"14:36:32",1
"22/09/01","14:50",0.2,27.7,83.5,1003.8,277.8,1.1,3.1,240.2,0.01,24.7,27.3,"14:42:08",1
"22/09/01","15:00",1.6,26.9,85.7,1004.1,234.0,1.8,3.7,222.8,0.04,24.3,27.2,"14:54:08",1
"22/09/01","15:10",0.6,27.0,87.3,1004.1,257.3,0.5,1.2,239.9,0.16,24.7,27.4,"15:00:08",1
"22/09/01","15:20",0.0,27.2,88.1,1004.1,340.9,1.0,2.5,10.6,0.20,25.1,27.4,"15:12:40",1
"22/09/01","15:30",0.0,27.3,88.2,1004.1,202.5,0.8,2.0,195.3,0.12,25.2,27.5,"15:27:44",1
"22/09/01","15:40",0.0,26.9,88.7,1004.5,267.2,0.7,1.7,233.4,0.08,24.9,27.5,"15:30:16",1
"22/09/01","15:50",0.0,26.9,88.9,1004.8,302.1,0.6,1.6,246.2,0.06,25.0,27.2,"15:49:28",1
"22/09/01","16:00",0.0,26.9,89.2,1004.8,301.9,1.0,2.2,349.1,0.02,25.0,27.4,"15:58:48",1
"22/09/01","16:10",1.0,26.8,89.7,1005.0,326.7,1.0,2.1,327.3,0.06,25.0,27.2,"16:06:32",1
"22/09/01","16:20",0.0,26.5,90.0,1004.5,281.4,0.6,1.7,303.4,0.01,24.8,27.3,"16:16:48",1
"22/09/01","16:30",0.0,26.4,90.3,1005.5,308.3,0.7,2.2,338.5,0.00,24.7,27.5,"16:21:20",1
"22/09/01","16:40",0.0,26.4,90.6,1005.5,319.3,0.7,1.9,238.1,0.00,24.8,27.5,"16:39:20",1
"22/09/01","16:50",1.6,26.4,91.0,1004.5,160.9,1.2,2.9,134.2,0.01,24.9,27.5,"16:46:24",1
"22/09/01","17:00",0.2,26.3,91.4,1004.3,126.7,0.5,1.2,134.0,0.04,24.8,27.4,"16:59:36",1
"22/09/01","17:10",0.0,26.2,91.6,1004.1,165.3,0.8,1.7,177.1,0.02,24.8,27.4,"17:02:24",1
"22/09/01","17:20",0.0,26.1,91.8,1004.5,185.4,1.0,1.6,176.0,0.01,24.7,27.4,"17:12:18",1
"22/09/01","17:30",0.0,26.1,92.2,1005.0,178.3,1.0,2.0,213.8,0.01,24.8,27.5,"17:29:28",1
"22/09/01","17:40",0.0,26.1,92.3,1005.2,193.5,0.7,1.8,213.8,0.01,24.8,27.3,"17:32:32",1
"22/09/01","17:50",0.0,26.0,92.4,1005.2,153.4,0.1,0.5,160.0,0.00,24.7,27.4,"17:43:20",1
"22/09/01","18:00",0.0,26.0,92.6,1005.2,329.1,0.7,1.3,342.5,0.00,24.7,27.3,"17:55:44",1
"22/09/01","18:10",0.0,26.0,92.7,1005.0,328.2,0.8,2.0,306.9,0.01,24.8,27.4,"18:07:04",1
"22/09/01","18:20",0.0,26.0,92.8,1005.2,330.0,0.6,1.8,333.0,0.00,24.8,27.4,"18:10:56",1
"22/09/01","18:30",0.0,25.9,92.9,1005.2,331.0,0.6,1.0,345.1,0.00,24.7,27.2,"18:20:24",1
"22/09/01","18:40",0.0,25.8,93.0,1005.7,330.0,0.6,1.1,313.7,0.00,24.6,27.2,"18:31:52",1
"22/09/01","18:50",0.0,25.8,93.2,1005.7,338.0,0.8,1.6,321.2,0.00,24.7,27.4,"18:48:56",1
"22/09/01","19:00",0.0,25.7,93.3,1006.2,286.5,0.8,1.4,323.2,0.00,24.6,27.2,"18:50:24",1
"22/09/01","19:10",0.0,25.6,93.4,1006.2,310.3,0.5,1.7,316.5,0.00,24.5,27.3,"19:02:32",1
"22/09/01","19:20",0.0,25.5,93.5,1006.0,0.5,0.7,1.6,342.2,0.00,24.4,27.4,"19:18:48",1
"22/09/01","19:30",0.0,25.4,93.6,1006.0,322.1,1.0,1.8,349.8,0.00,24.3,27.2,"19:27:36",1
"22/09/01","19:40",0.0,25.3,93.8,1006.0,326.8,0.8,1.6,338.8,0.00,24.3,27.1,"19:30:48",1
"22/09/01","19:50",0.0,25.3,93.9,1006.7,315.7,1.0,2.0,338.6,0.00,24.3,27.2,"19:47:44",1
"22/09/01","20:00",0.0,25.2,94.0,1006.7,329.7,1.6,2.6,339.6,0.00,24.2,27.2,"19:57:20",1
"22/09/01","20:10",0.0,25.1,94.1,1006.7,342.6,1.1,2.7,335.6,0.00,24.1,27.3,"20:02:24",1
"22/09/01","20:20",0.0,25.1,94.2,1006.9,327.3,1.0,1.6,351.8,0.00,24.1,27.3,"20:13:36",1
"22/09/01","20:30",0.0,25.0,94.3,1006.4,281.0,0.7,1.2,322.8,0.00,24.1,27.1,"20:20:08",1
"22/09/01","20:40",0.0,25.0,94.4,1007.1,316.9,1.5,2.8,335.4,0.00,24.1,27.1,"20:36:24",1
"22/09/01","20:50",0.0,24.9,94.5,1006.9,312.7,1.6,2.4,321.8,0.00,24.0,26.9,"20:41:36",1
"22/09/01","21:00",0.0,24.9,94.6,1006.9,326.0,1.1,2.4,341.1,0.00,24.0,27.1,"20:53:12",1
"22/09/01","21:10",0.0,25.0,94.6,1007.4,332.7,0.6,1.2,353.7,0.00,24.1,26.9,"21:00:08",1
"22/09/01","21:20",0.0,25.1,94.6,1007.6,323.2,1.0,1.7,324.6,0.00,24.2,26.9,"21:18:40",1
"22/09/01","21:30",0.0,25.1,94.6,1007.1,327.2,1.1,1.8,324.9,0.00,24.2,26.9,"21:20:08",1
"22/09/01","21:40",0.0,25.0,94.7,1007.4,277.8,1.0,1.8,255.5,0.00,24.1,26.9,"21:35:52",1
"22/09/01","21:50",0.0,25.0,94.8,1007.1,315.0,1.5,2.5,345.9,0.00,24.1,26.9,"21:49:36",1
"22/09/01","22:00",0.4,25.0,94.9,1007.4,329.1,1.1,1.7,329.9,0.00,24.2,26.9,"21:55:04",1
"22/09/01","22:10",1.0,24.9,94.9,1007.4,337.4,1.0,2.4,336.6,0.00,24.1,26.9,"22:09:12",1
"22/09/01","22:20",0.6,24.8,94.9,1006.7,342.7,1.0,1.7,347.2,0.00,24.0,26.7,"22:15:44",1
"22/09/01","22:30",0.8,24.8,95.0,1007.1,301.6,0.7,1.2,321.2,0.00,24.0,26.8,"22:22:32",1
"22/09/01","22:40",1.4,24.7,95.1,1007.1,288.5,0.6,1.2,343.9,0.00,23.9,26.9,"22:39:36",1
"22/09/01","22:50",1.4,24.2,95.2,1007.6,312.4,1.3,3.4,339.7,0.00,23.4,26.8,"22:45:52",1
"22/09/01","23:00",0.8,24.0,95.3,1007.4,332.9,1.2,2.4,337.3,0.00,23.2,27.0,"22:52:00",1
"22/09/01","23:10",1.0,24.0,95.3,1007.8,264.8,0.3,0.6,354.3,0.00,23.2,26.8,"23:00:08",1
"22/09/01","23:20",3.0,23.9,95.4,1007.6,338.9,0.8,1.7,344.5,0.00,23.2,26.6,"23:18:56",1
"22/09/01","23:30",3.2,23.9,95.4,1007.8,261.6,0.7,1.4,18.2,0.00,23.2,26.7,"23:20:08",1
"22/09/01","23:40",3.0,23.8,95.4,1007.6,349.1,0.6,1.8,314.4,0.00,23.1,26.7,"23:38:48",1
"22/09/01","23:50",4.0,23.5,95.4,1007.4,346.6,0.8,1.8,351.8,0.00,22.8,26.5,"23:41:12",1
"22/09/01","24:00",0.6,23.1,95.7,1007.6,250.5,0.7,2.0,249.9,0.00,22.4,26.5,"23:50:02",1
